Wind_Speed
52 49 35 34 20 51 44 44 46 53 56 57 60 61 64 65 67 67 66 70 71 68 70 69 66 63 61 62 60 58 58 57
52 57 49 27 29 36 43 48 46 50 52 53 52 53 52 57 57 58 57 56 56 58 59 57 61 61 59 58 58 55 57 59
63 56 55 49 48 45 33 43 37 40 35 36 40 43 45 48 48 48 50 49 46 46 53 57 53 54 56 58 55 57 56 59
65 63 59 55 53 60 48 47 43 37 35 30 34 36 36 36 40 41 43 45 44 47 50 47 54 58 59 56 57 55 60 62
61 62 62 67 57 60 57 56 44 40 39 38 35 41 39 41 42 41 44 45 47 52 50 53 57 59 59 56 57 59 66 67
67 63 64 64 63 61 56 47 45 46 42 41 49 45 47 41 43 52 52 58 54 57 62 64 62 55 54 56 60 67 70 69
71 67 69 64 64 60 52 43 43 47 48 49 48 51 53 52 56 57 57 60 61 60 63 65 63 65 61 65 66 67 65 66
73 68 74 67 61 61 60 54 50 51 53 50 52 56 55 55 60 63 63 64 63 63 65 66 62 62 66 68 68 65 72 69
74 71 72 73 67 60 60 61 59 58 57 59 51 57 57 58 62 65 69 71 70 66 65 67 66 67 67 67 67 68 67 72
75 73 72 70 67 68 64 64 68 64 60 60 62 62 60 60 61 60 65 60 62 61 65 63 60 62 65 65 66 70 71 76
59 68 69 70 67 67 71 68 67 69 65 65 61 66 65 62 62 58 56 59 63 68 64 64 66 67 66 67 72 75 78 78
47 51 61 67 66 69 72 73 73 73 70 69 68 64 66 65 58 61 63 66 62 62 66 67 65 69 72 71 73 75 80 81
40 46 53 61 65 65 66 70 72 78 73 74 72 74 72 58 68 61 64 64 64 67 67 62 65 70 71 72 77 77 76 76
32 38 44 49 52 64 62 58 63 67 61 61 63 57 56 53 49 54 60 64 72 65 66 68 71 75 79 75 72 73 75 79
24 21 20 31 40 42 42 37 42 45 49 49 46 55 62 60 63 59 57 64 62 65 65 67 72 74 73 76 77 79 78 79
23 23 23 24 28 31 30 36 44 45 43 45 49 53 51 52 53 55 57 60 62 68 65 68 72 73 72 77 78 78 78 76
34 31 30 33 34 29 28 32 34 35 38 42 46 47 49 53 57 58 58 59 59 61 65 71 73 75 72 74 77 79 78 79
31 30 33 33 33 35 35 36 39 40 42 41 46 50 51 53 54 57 59 61 63 67 65 70 73 74 76 78 78 81 84 87
35 35 34 37 36 38 41 44 42 39 39 40 46 49 52 54 56 60 62 64 66 68 68 69 72 71 78 81 82 87 87 87
41 40 38 39 38 36 36 38 39 38 43 38 39 39 48 51 58 62 64 66 66 67 66 67 68 76 80 84 88 87 88 92
Wind_Direction
224 244 250 261 232 274 269 267 264 260 259 261 264 265 264 265 265 265 267 267 272 272 275 277 277 278 278 278 281 282 284 287
198 210 210 223 236 226 259 264 257 254 255 261 262 263 260 259 261 264 267 269 271 276 276 280 279 279 280 281 285 283 284 290
206 201 200 206 217 218 239 253 254 253 256 260 259 258 261 261 259 258 257 259 266 268 271 274 277 282 285 285 283 286 285 285
199 206 199 206 201 219 218 234 236 244 243 255 250 245 242 242 252 255 257 260 271 276 277 270 275 280 283 284 284 283 283 284
200 203 202 206 211 221 223 230 242 236 233 248 244 240 238 240 244 248 254 258 264 270 270 272 274 276 280 287 282 281 283 285
201 198 202 208 212 220 222 228 234 234 238 236 243 247 246 248 237 248 253 258 265 269 270 275 280 281 284 285 279 282 284 287
200 202 205 210 215 220 226 224 223 229 234 241 244 249 252 245 248 254 257 259 262 267 271 275 281 280 281 284 281 281 285 292
202 204 210 211 219 226 230 230 230 233 234 241 244 249 249 246 255 256 260 264 265 269 274 278 281 279 281 281 284 283 291 289
206 209 211 215 222 226 230 230 229 231 235 239 243 247 252 254 256 263 264 262 268 272 275 275 279 283 284 284 288 290 284 290
212 213 214 221 224 227 233 232 235 238 240 244 247 253 253 257 263 267 266 270 271 272 274 278 284 284 284 287 285 285 283 286
218 223 228 230 231 234 235 237 239 242 244 245 249 253 256 261 261 265 268 272 272 274 282 283 284 284 286 285 282 283 285 287
226 224 227 234 239 238 240 243 243 244 246 247 249 252 256 262 265 268 268 270 273 276 280 283 280 284 283 282 280 282 286 289
225 226 229 235 236 242 244 242 246 247 248 251 254 258 259 270 268 268 270 270 274 273 281 279 277 277 277 280 283 286 288 289
229 231 234 230 235 236 241 247 247 249 249 250 254 260 261 262 265 265 269 270 275 273 278 278 278 278 280 283 284 286 288 291
229 231 232 233 236 241 244 247 247 249 249 251 257 261 266 264 267 269 266 272 273 270 273 276 279 280 284 284 285 287 288 288
230 232 240 240 244 244 248 250 243 245 251 253 252 251 254 259 263 265 268 266 269 274 278 280 281 283 286 288 288 288 288 290
238 237 240 239 244 253 253 248 253 252 260 257 262 262 264 265 268 272 273 274 274 278 282 281 284 284 284 285 287 289 292 295
250 252 245 249 249 249 252 256 258 263 267 264 266 265 267 270 270 270 273 277 279 282 280 282 283 284 286 286 287 289 291 292
246 249 253 249 255 256 258 262 267 267 265 261 266 267 270 271 275 278 279 279 279 280 279 280 283 284 285 289 290 294 297 299
253 255 260 261 262 263 265 268 265 265 269 276 272 276 275 275 277 275 276 277 278 278 279 279 282 286 289 289 293 296 298 298
Height
10738 10729 10736 10736 10737 10726 10728 10731 10735 10739 10740 10741 10746 10750 10751 10754 10755 10756 10757 10756 10757 10755 10755 10754 10755 10756 10756 10753 10754 10752 10748 10748
10717 10715 10725 10726 10725 10718 10722 10724 10725 10726 10730 10734 10737 10738 10740 10742 10745 10745 10747 10747 10746 10745 10743 10744 10744 10744 10745 10744 10744 10742 10740 10736
10702 10702 10705 10706 10713 10718 10715 10712 10718 10719 10723 10726 10729 10730 10732 10734 10736 10737 10737 10738 10738 10738 10735 10735 10735 10735 10735 10735 10734 10733 10730 10729
10690 10693 10693 10697 10701 10702 10703 10707 10711 10714 10717 10719 10722 10723 10725 10726 10726 10726 10726 10728 10728 10728 10729 10728 10727 10728 10728 10728 10726 10724 10720 10718
10677 10682 10683 10688 10692 10691 10695 10703 10707 10710 10711 10714 10716 10716 10716 10717 10718 10718 10719 10720 10719 10719 10721 10721 10721 10720 10720 10718 10716 10712 10708 10708
10669 10672 10675 10680 10685 10687 10691 10697 10699 10703 10704 10704 10706 10710 10710 10711 10709 10709 10710 10709 10711 10713 10712 10712 10712 10711 10710 10708 10706 10702 10698 10698
10660 10665 10669 10675 10680 10684 10685 10692 10692 10689 10693 10697 10701 10702 10703 10704 10703 10704 10703 10702 10704 10704 10704 10704 10705 10702 10700 10697 10693 10690 10690 10682
10656 10658 10663 10670 10675 10678 10681 10682 10684 10686 10687 10690 10692 10694 10695 10696 10696 10696 10696 10696 10695 10696 10697 10696 10695 10692 10689 10684 10681 10679 10677 10674
10649 10653 10658 10663 10669 10672 10671 10676 10675 10678 10680 10683 10683 10685 10687 10689 10689 10688 10689 10688 10687 10688 10688 10687 10684 10681 10677 10672 10669 10666 10662 10661
10647 10650 10654 10658 10661 10663 10664 10665 10670 10674 10676 10677 10680 10679 10681 10682 10681 10681 10680 10680 10679 10677 10677 10675 10672 10668 10664 10660 10657 10652 10649 10645
10641 10643 10645 10649 10651 10655 10655 10661 10663 10667 10668 10670 10672 10673 10671 10672 10673 10673 10672 10670 10670 10667 10665 10661 10658 10655 10652 10648 10645 10639 10634 10629
10632 10635 10638 10642 10644 10648 10650 10654 10657 10660 10662 10664 10665 10664 10663 10662 10663 10662 10661 10660 10658 10654 10652 10649 10645 10643 10641 10633 10629 10626 10622 10615
10625 10629 10632 10635 10636 10640 10642 10644 10647 10651 10654 10654 10654 10656 10655 10652 10653 10651 10647 10649 10646 10643 10640 10637 10632 10627 10624 10621 10616 10609 10603 10600
10619 10623 10626 10630 10631 10636 10638 10639 10640 10643 10644 10644 10646 10648 10645 10642 10640 10639 10637 10636 10635 10633 10627 10623 10619 10613 10609 10606 10602 10599 10592 10583
10616 10620 10621 10625 10628 10630 10632 10633 10634 10635 10637 10638 10637 10635 10632 10633 10631 10631 10626 10623 10623 10618 10613 10607 10604 10601 10590 10588 10587 10579 10574 10569
10611 10614 10616 10618 10621 10624 10626 10626 10626 10627 10628 10629 10627 10626 10624 10622 10620 10618 10615 10612 10610 10601 10600 10594 10589 10586 10580 10567 10565 10561 10556 10551
10608 10610 10611 10614 10615 10617 10617 10618 10618 10618 10619 10618 10617 10616 10614 10612 10609 10606 10601 10599 10598 10592 10585 10578 10576 10568 10567 10558 10549 10544 10538 10534
10602 10604 10604 10605 10606 10608 10609 10610 10609 10609 10608 10608 10607 10605 10604 10602 10598 10593 10590 10586 10583 10578 10572 10564 10561 10554 10545 10543 10539 10531 10524 10517
10595 10596 10597 10598 10600 10601 10602 10602 10600 10600 10598 10598 10593 10595 10592 10590 10587 10582 10579 10575 10570 10565 10559 10553 10549 10541 10532 10526 10521 10514 10507 10497
10587 10588 10590 10591 10592 10592 10592 10590 10590 10592 10587 10592 10589 10589 10581 10579 10575 10571 10568 10563 10559 10554 10549 10543 10536 10525 10519 10512 10506 10496 10490 10482